Weather History for Fort Smith, AR

Change the Weather History Date:

Saturday, March 23, 2013

  Actual Average Record
Temperature  
Mean Temperature 45 °F 55 °F  
Max Temperature 47 °F 67 °F 87 °F (1929)
Min Temperature 42 °F 43 °F 26 °F (1968)
Degree Days  
Heating Degree Days 20 11  
Month to date heating degree days 356 311  
Since 1 July heating degree days 2679 2984  
Cooling Degree Days 0 1  
Month to date cooling degree days 2 1  
Year to date cooling degree days 3 2  
Moisture  
Dew Point 40 °F    
Average Humidity 87    
Maximum Humidity 92    
Minimum Humidity 82    
Precipitation  
Precipitation 0.01 in 0.12 in 1.86 in (1969)
Month to date precipitation 2.51 2.77  
Year to date precipitation 10.94 8.34  
Sea Level Pressure  
Sea Level Pressure 29.82 in    
Wind  
Wind Speed 8 mph (East)    
Max Wind Speed 16 mph    
Max Gust Speed 20 mph    
Visibility 7 miles    
Events Rain    
T = Trace of Precipitation, MM = Missing Value Source: NWS Daily Summary

Daily Weather History Graph

Daily Weather History Graph

Search for Another Location

Airport:

Trip Planner

Search our weather history database for the weather conditions in past years. The results will help you decide how hot, cold, wet, or windy it might be!

Date:

Astronomy

Mar. 23, 2013 Rise Set
Actual Time 7:16 AM CDT 7:31 PM CDT
Civil Twilight 6:51 AM CDT 7:57 PM CDT
Nautical Twilight 6:21 AM CDT 8:27 PM CDT
Astronomical Twilight 5:51 AM CDT 8:57 PM CDT
Moon 4:05 PM CDT (3/23) 4:45 AM CDT (3/23)
Length of Visible Light 13h 06m
Length of Day
12h 15m
Waxing Gibbous, 85% of the Moon is Illuminated
Mar 23
Waxing Gibbous
Mar 27
Full
Apr 2
Last Quarter
Apr 10
New
Apr 18
First Quarter

Hourly Weather History & Observations

Time (CDT) Temp. Windchill Dew Point Humidity Pressure Visibility Wind Dir Wind Speed Gust Speed Precip Events Conditions
12:12 AM 44.6 °F 39.7 °F 39.2 °F 81% 29.91 in 10.0 mi East 9.2 mph - N/A   Overcast
12:53 AM 43.0 °F 36.8 °F 37.9 °F 82% 29.89 in 10.0 mi East 11.5 mph 19.6 mph N/A   Overcast
1:53 AM 43.0 °F 38.8 °F 37.9 °F 82% 29.88 in 10.0 mi East 6.9 mph - N/A   Overcast
2:53 AM 43.0 °F 38.2 °F 37.9 °F 82% 29.90 in 10.0 mi ENE 8.1 mph - N/A   Overcast
3:53 AM 42.1 °F 36.1 °F 37.9 °F 85% 29.88 in 7.0 mi ENE 10.4 mph - N/A   Overcast
4:06 AM 42.8 °F 36.6 °F - N/A% 29.86 in 7.0 mi ENE 11.5 mph - N/A   Overcast
4:53 AM 42.1 °F 36.6 °F - N/A% 29.87 in 4.0 mi East 9.2 mph - N/A   Haze
5:53 AM 42.1 °F 37.1 °F - N/A% 29.88 in 6.0 mi East 8.1 mph - N/A   Haze
6:36 AM 42.8 °F 37.5 °F - N/A% 29.87 in 5.0 mi East 9.2 mph - N/A   Haze
6:53 AM 42.1 °F 37.7 °F - N/A% 29.87 in 6.0 mi ESE 6.9 mph - N/A   Haze
7:53 AM 42.1 °F 36.6 °F - N/A% 29.88 in 5.0 mi ENE 9.2 mph - N/A   Haze
8:46 AM 42.8 °F 38.6 °F - N/A% 29.88 in 6.0 mi East 6.9 mph - N/A   Haze
8:53 AM 43.0 °F 38.8 °F - N/A% 29.88 in 6.0 mi East 6.9 mph - N/A   Haze
9:53 AM 44.1 °F 39.5 °F - N/A% 29.89 in 7.0 mi ENE 8.1 mph - N/A   Overcast
10:53 AM 44.1 °F 39.0 °F - N/A% 29.88 in 3.0 mi East 9.2 mph - N/A   Overcast
11:08 AM 44.6 °F 40.2 °F - N/A% 29.87 in 2.5 mi East 8.1 mph - N/A   Overcast
11:53 AM 44.1 °F 39.5 °F - N/A% 29.89 in 2.0 mi East 8.1 mph - N/A   Overcast
12:00 PM 44.6 °F 42.2 °F - N/A% 29.90 in 1.8 mi East 4.6 mph - N/A   Overcast
12:53 PM 45.0 °F 40.1 °F - N/A% 29.85 in 1.8 mi ENE 9.2 mph - 0.01 in   Overcast
1:53 PM 45.0 °F 40.1 °F 42.1 °F 90% 29.83 in 5.0 mi East 9.2 mph - N/A   Overcast
2:53 PM 45.0 °F 39.3 °F 42.1 °F 90% 29.78 in 4.0 mi NNE 11.5 mph - 0.00 in Rain Light Rain
3:14 PM 46.4 °F 41.5 °F 42.8 °F 87% 29.77 in 6.0 mi East 10.4 mph - 0.00 in   Overcast
3:49 PM 46.4 °F 42.4 °F 42.8 °F 87% 29.77 in 9.0 mi East 8.1 mph - 0.00 in   Overcast
3:53 PM 46.0 °F 42.5 °F 42.1 °F 86% 29.78 in 10.0 mi East 6.9 mph - 0.00 in   Overcast
4:50 PM 46.4 °F 40.7 °F 42.8 °F 87% 29.72 in 10.0 mi NE 12.7 mph - N/A   Overcast
4:53 PM 46.9 °F - 42.1 °F 83% 29.72 in 10.0 mi NE 11.5 mph - N/A   Overcast
5:53 PM 46.9 °F - 42.1 °F 83% 29.74 in 10.0 mi East 10.4 mph - N/A   Overcast
6:53 PM 46.0 °F 42.5 °F 42.1 °F 86% 29.74 in 10.0 mi East 6.9 mph - N/A   Overcast
7:53 PM 46.0 °F 43.1 °F 42.1 °F 86% 29.74 in 10.0 mi ESE 5.8 mph - N/A   Overcast
8:53 PM 46.0 °F 44.8 °F 42.1 °F 86% 29.77 in 10.0 mi East 3.5 mph - N/A   Overcast
9:53 PM 46.0 °F 44.8 °F 42.1 °F 86% 29.76 in 10.0 mi East 3.5 mph - N/A   Overcast
10:42 PM 44.6 °F 42.2 °F 42.8 °F 93% 29.73 in 4.0 mi East 4.6 mph - N/A   Overcast
10:53 PM 45.0 °F 42.6 °F 42.1 °F 90% 29.74 in 4.0 mi East 4.6 mph - N/A   Overcast
11:00 PM 44.6 °F 43.1 °F 42.8 °F 93% 29.74 in 4.0 mi East 3.5 mph - N/A   Overcast
11:17 PM 44.6 °F 43.1 °F 42.8 °F 93% 29.74 in 2.5 mi East 3.5 mph - N/A   Overcast
11:53 PM 45.0 °F - 43.0 °F 93% 29.75 in 1.8 mi Calm Calm - N/A   Overcast